Weather History for KVAD - December, 2012

Change the Weather History Date:

Monday, December 17, 2012

  Actual Average Record
Temperature  
Mean Temperature 65 °F -  
Max Temperature 73 °F 61 °F 78 °F (2001)
Min Temperature 57 °F 41 °F 32 °F (2000)
Growing Degree Days 15 (Base 50)    
Moisture  
Dew Point 63 °F    
Average Humidity 95    
Maximum Humidity 100    
Minimum Humidity 73    
Precipitation  
Precipitation 0.56 in - - ()
Sea Level Pressure  
Sea Level Pressure 29.89 in    
Wind  
Wind Speed 8 mph (SW)    
Max Wind Speed 30 mph    
Max Gust Speed 38 mph    
Visibility 7 miles    
Events Rain    
Averages and records for this station are not official NWS values.
T = Trace of Precipitation, MM = Missing Value Source: NWS Daily Summary

Daily Weather History Graph

Daily Weather History Graph

Search for Another Location

Airport or City:

Trip Planner

Search our weather history database for the weather conditions in past years. The results will help you decide how hot, cold, wet, or windy it might be!

Date:

Astronomy

Dec. 17, 2012 Rise Set
Actual Time 7:24 AM EST 5:33 PM EST
Civil Twilight 6:58 AM EST 6:00 PM EST
Nautical Twilight 6:27 AM EST 6:30 PM EST
Astronomical Twilight 5:58 AM EST 6:59 PM EST
Moon 10:48 AM EST (12/17) 10:35 PM EST (12/17)
Length of Visible Light 11h 02m
Length of Day
10h 08m
Waxing Crescent, 24% of the Moon is Illuminated
Dec 17
Waxing Crescent
Dec 20
First Quarter
Dec 28
Full
Jan 4
Last Quarter
Jan 11
New

Hourly Weather History & Observations

Time (EST) Temp. Dew Point Humidity Pressure Visibility Wind Dir Wind Speed Gust Speed Precip Events Conditions
12:20 AM 64.4 °F 64.4 °F 100% 29.92 in 10.0 mi SSW 6.9 mph - N/A   Mostly Cloudy
12:42 AM 64.4 °F 64.4 °F 100% 29.93 in 10.0 mi SW 8.1 mph - N/A   Overcast
12:45 AM 64.4 °F 64.4 °F 100% 29.93 in 10.0 mi SW 8.1 mph - N/A   Overcast
12:55 AM 64.9 °F 64.6 °F 99% 29.93 in 10.0 mi WSW 6.9 mph - N/A   Overcast
12:56 AM 64.4 °F 64.4 °F 100% 29.93 in 10.0 mi WSW 8.1 mph - N/A Rain Light Rain
1:03 AM 64.4 °F 64.4 °F 100% 29.93 in 9.0 mi SW 5.8 mph - N/A Rain Light Rain
1:19 AM 64.4 °F 64.4 °F 100% 29.93 in 9.0 mi West 6.9 mph - N/A Rain Light Rain
1:29 AM 64.4 °F 64.4 °F 100% 29.92 in 3.0 mi WSW 4.6 mph - N/A Rain Light Rain
1:35 AM 64.4 °F 64.4 °F 100% 29.92 in 5.0 mi SW 4.6 mph - N/A Rain Light Rain
1:42 AM 64.4 °F 64.4 °F 100% 29.93 in 10.0 mi WSW 4.6 mph - N/A Rain Light Rain
1:53 AM 64.4 °F 64.4 °F 100% 29.92 in 5.0 mi West 3.5 mph - N/A Rain Light Rain
1:55 AM 64.4 °F 64.4 °F 100% 29.92 in 5.0 mi West 3.5 mph - 0.03 in Rain Light Rain
2:04 AM 64.4 °F 64.4 °F 100% 29.92 in 3.0 mi West 3.5 mph - N/A Rain Light Rain
2:06 AM 64.4 °F 64.4 °F 100% 29.92 in 3.0 mi West 3.5 mph - N/A Rain Light Rain
2:09 AM 64.4 °F 64.4 °F 100% 29.92 in 3.0 mi SW 4.6 mph - N/A Rain Light Rain
2:10 AM 64.4 °F 64.4 °F 100% 29.92 in 4.0 mi SW 4.6 mph - N/A Rain Light Rain
2:13 AM 64.4 °F 64.4 °F 100% 29.92 in 5.0 mi SSW 4.6 mph - N/A Rain Light Rain
2:27 AM 64.4 °F 64.4 °F 100% 29.94 in 5.0 mi NW 13.8 mph 18.4 mph N/A Rain Heavy Rain
2:28 AM 62.6 °F 62.6 °F 100% 29.94 in 5.0 mi NW 12.7 mph 18.4 mph N/A Rain Heavy Rain
2:30 AM 62.6 °F 62.6 °F 100% 29.94 in 5.0 mi NNW 13.8 mph 18.4 mph N/A Rain Heavy Rain
2:31 AM 62.6 °F 62.6 °F 100% 29.94 in 5.0 mi NNW 15.0 mph 20.7 mph N/A Rain Heavy Rain
2:34 AM 62.6 °F 62.6 °F 100% 29.94 in 6.0 mi NNW 16.1 mph 20.7 mph N/A Rain Light Rain
2:35 AM 62.6 °F 62.6 °F 100% 29.94 in 6.0 mi NNW 15.0 mph - N/A Rain Light Rain
2:40 AM 62.6 °F 62.6 °F 100% 29.95 in 10.0 mi NNW 11.5 mph 20.7 mph N/A Rain Light Rain
2:47 AM 62.6 °F 62.6 °F 100% 29.94 in 8.0 mi NNW 8.1 mph - N/A Rain Light Rain
2:53 AM 62.6 °F 62.6 °F 100% 29.94 in 8.0 mi NNW 6.9 mph - N/A Rain Light Rain
2:55 AM 62.1 °F 62.1 °F 100% 29.94 in 8.0 mi NNW 6.9 mph - 0.09 in Rain Light Rain
3:03 AM 62.6 °F 62.6 °F 100% 29.94 in 10.0 mi NNW 6.9 mph - N/A Rain Light Rain
3:06 AM 62.6 °F 62.6 °F 100% 29.94 in 10.0 mi NNW 6.9 mph - N/A Rain Light Rain
3:12 AM 60.8 °F 60.8 °F 100% 29.94 in 10.0 mi NNW 6.9 mph - N/A Rain Light Rain
3:26 AM 60.8 °F 60.8 °F 100% 29.94 in 10.0 mi North 5.8 mph - N/A Rain Light Rain
3:27 AM 60.8 °F 60.8 °F 100% 29.93 in 10.0 mi North 5.8 mph - N/A Rain Light Rain
3:28 AM 60.8 °F 60.8 °F 100% 29.93 in 10.0 mi North 5.8 mph - N/A Rain Light Rain
3:33 AM 60.8 °F 60.8 °F 100% 29.93 in 10.0 mi NNE 6.9 mph - N/A Rain Light Rain
3:43 AM 60.8 °F 60.8 °F 100% 29.93 in 10.0 mi ENE 3.5 mph - N/A Rain Light Rain
3:48 AM 60.8 °F 60.8 °F 100% 29.93 in 10.0 mi East 3.5 mph - N/A   Overcast
3:55 AM 61.0 °F 60.6 °F 99% 29.92 in 10.0 mi ESE 4.6 mph - 0.01 in   Overcast
4:55 AM 60.8 °F 60.4 °F 99% 29.91 in 10.0 mi SE 4.6 mph - N/A   Overcast
5:55 AM 60.6 °F 60.6 °F 100% 29.90 in 10.0 mi SE 3.5 mph - N/A   Mostly Cloudy
6:13 AM 59.0 °F 59.0 °F 100% 29.89 in 2.5 mi Calm Calm - N/A   Partly Cloudy
6:27 AM 59.0 °F 59.0 °F 100% 29.89 in 2.0 mi Calm Calm - N/A   Mostly Cloudy
6:32 AM 59.0 °F 59.0 °F 100% 29.89 in 1.8 mi Calm Calm - N/A   Scattered Clouds
6:35 AM 59.0 °F 59.0 °F 100% 29.89 in 1.5 mi Calm Calm - N/A   Scattered Clouds
6:36 AM 59.0 °F 59.0 °F 100% 29.89 in 1.2 mi Calm Calm - N/A   Scattered Clouds
6:49 AM 57.2 °F 57.2 °F 100% 29.90 in 1.5 mi Calm Calm - N/A   Partly Cloudy
6:50 AM 57.2 °F 57.2 °F 100% 29.90 in 1.5 mi Calm Calm - N/A   Partly Cloudy
6:51 AM 57.2 °F 57.2 °F 100% 29.90 in 1.8 mi Calm Calm - N/A   Partly Cloudy
6:52 AM 57.2 °F 57.2 °F 100% 29.90 in 2.0 mi Calm Calm - N/A   Partly Cloudy
6:54 AM 57.2 °F 57.2 °F 100% 29.90 in 3.0 mi South 3.5 mph - N/A   Partly Cloudy
6:55 AM 57.4 °F 57.4 °F 100% 29.90 in 4.0 mi South 3.5 mph - N/A   Clear
7:55 AM 59.5 °F 59.5 °F 100% 29.88 in 10.0 mi SSE 9.2 mph - N/A   Mostly Cloudy
8:55 AM 62.2 °F 62.2 °F 100% 29.88 in 10.0 mi SE 11.5 mph - N/A   Mostly Cloudy
9:55 AM 64.8 °F 63.9 °F 97% 29.89 in 10.0 mi SSE 12.7 mph - N/A   Overcast
10:40 AM 68.0 °F 64.4 °F 88% 29.89 in 10.0 mi South 9.2 mph - N/A   Overcast
10:44 AM 68.0 °F 64.4 °F 88% 29.89 in 10.0 mi South 10.4 mph - N/A   Overcast
10:55 AM 67.3 °F 65.1 °F 93% 29.88 in 10.0 mi South 9.2 mph - N/A   Overcast
11:15 AM 68.0 °F 64.4 °F 88% 29.88 in 10.0 mi South 9.2 mph - N/A   Overcast
11:32 AM 68.0 °F 64.4 °F 88% 29.87 in 10.0 mi South 8.1 mph - N/A   Overcast
11:40 AM 68.0 °F 64.4 °F 88% 29.87 in 10.0 mi South 9.2 mph - N/A   Overcast
11:41 AM 68.0 °F 64.4 °F 88% 29.87 in 10.0 mi South 9.2 mph - N/A   Overcast
11:55 AM 68.2 °F 65.1 °F 90% 29.86 in 10.0 mi South 8.1 mph - N/A   Overcast
12:04 PM 68.0 °F 64.4 °F 88% 29.86 in 10.0 mi SSW 5.8 mph - N/A Rain Light Rain
12:08 PM 68.0 °F 66.2 °F 94% 29.86 in 10.0 mi SSW 5.8 mph - N/A Rain Light Rain
12:13 PM 68.0 °F 66.2 °F 94% 29.86 in 10.0 mi South 6.9 mph - N/A   Overcast
12:25 PM 68.0 °F 66.2 °F 94% 29.86 in 10.0 mi South 8.1 mph - N/A Rain Light Rain
12:44 PM 69.8 °F 68.0 °F 94% 29.85 in 10.0 mi SSW 8.1 mph - N/A   Overcast
12:45 PM 69.8 °F 68.0 °F 94% 29.85 in 10.0 mi South 6.9 mph - N/A Rain Light Rain
12:51 PM 69.8 °F 66.2 °F 88% 29.85 in 10.0 mi South 9.2 mph - N/A Rain Light Rain
12:52 PM 69.8 °F 66.2 °F 88% 29.85 in 10.0 mi South 9.2 mph - N/A   Overcast
12:53 PM 69.8 °F 66.2 °F 88% 29.85 in 10.0 mi South 9.2 mph - N/A   Overcast
12:54 PM 69.8 °F 66.2 °F 88% 29.85 in 10.0 mi South 8.1 mph - N/A   Overcast
12:55 PM 69.4 °F 66.7 °F 91% 29.85 in 10.0 mi South 9.2 mph - 0.00 in   Overcast
1:11 PM 69.8 °F 66.2 °F 88% 29.84 in 10.0 mi South 16.1 mph 21.9 mph N/A   Overcast
1:17 PM 69.8 °F 66.2 °F 88% 29.84 in 10.0 mi South 13.8 mph - N/A   Overcast
1:18 PM 69.8 °F 66.2 °F 88% 29.84 in 10.0 mi South 15.0 mph - N/A   Overcast
1:19 PM 69.8 °F 66.2 °F 88% 29.84 in 10.0 mi SSW 13.8 mph - N/A   Overcast
1:55 PM 73.4 °F 67.1 °F 81% 29.81 in 10.0 mi SSW 17.3 mph - 0.01 in   Overcast
2:53 PM 73.4 °F 64.4 °F 73% 29.87 in 10.0 mi WNW 15.0 mph 21.9 mph N/A Rain Light Rain
2:55 PM 71.1 °F 63.0 °F 75% 29.88 in 7.0 mi WNW 23.0 mph 38.0 mph 0.09 in Rain Light Rain
2:56 PM 69.8 °F 62.6 °F 78% 29.87 in 3.0 mi WNW 29.9 mph 38.0 mph N/A Rain Heavy Rain
2:57 PM 68.0 °F 60.8 °F 78% 29.87 in 1.8 mi WNW 26.5 mph 38.0 mph N/A Rain Heavy Rain
3:00 PM 64.4 °F 60.8 °F 88% 29.86 in 1.2 mi WNW 24.2 mph 38.0 mph N/A Rain Heavy Rain
3:02 PM 64.4 °F 60.8 °F 88% 29.87 in 1.0 mi WNW 21.9 mph 38.0 mph N/A Rain Heavy Rain
3:06 PM 62.6 °F 60.8 °F 94% 29.87 in 1.2 mi West 18.4 mph 38.0 mph N/A Rain Heavy Rain
3:07 PM 62.6 °F 60.8 °F 94% 29.87 in 1.5 mi West 18.4 mph 33.4 mph N/A Rain Heavy Rain
3:08 PM 62.6 °F 60.8 °F 94% 29.87 in 1.8 mi West 13.8 mph 33.4 mph N/A Rain Heavy Rain
3:10 PM 62.6 °F 60.8 °F 94% 29.87 in 2.0 mi West 12.7 mph 28.8 mph N/A Rain Light Rain
3:17 PM 60.8 °F 60.8 °F 100% 29.87 in 3.0 mi West 8.1 mph 18.4 mph N/A Rain Light Rain
3:55 PM 61.3 °F 60.8 °F 98% 29.85 in 10.0 mi West 9.2 mph - 0.29 in Rain Light Rain
4:44 PM 60.8 °F 60.8 °F 100% 29.84 in 10.0 mi South 5.8 mph - N/A   Overcast
4:55 PM 61.0 °F 60.6 °F 99% 29.83 in 10.0 mi South 5.8 mph - 0.04 in   Overcast
7:55 PM 61.7 °F 60.6 °F 96% 29.83 in 10.0 mi WNW 13.8 mph 21.9 mph 0.00 in   Partly Cloudy
8:55 PM 61.9 °F 60.1 °F 94% 29.81 in 10.0 mi SSW 4.6 mph - N/A   Scattered Clouds
9:55 PM 62.1 °F 60.4 °F 94% 29.82 in 10.0 mi SW 4.6 mph - N/A   Mostly Cloudy
10:55 PM 62.1 °F 60.6 °F 95% 29.83 in 10.0 mi WSW 5.8 mph - N/A   Partly Cloudy
11:55 PM 62.2 °F 60.4 °F 94% 29.82 in 10.0 mi SW 4.6 mph - N/A   Clear